Flag for Romania Weather past 2 weeks in Brăila, Romania

Now
40 °F

Light rain. Overcast.


Feels Like: 40 °F
Forecast: 34 / 44 °F
Wind: 1 mph from North

Location: Galati

Current Time: Feb 1, 2015 at 9:26:32 AM

Latest Report: Feb 1, 2015 at 8:00 AM


Visibility: 6 mi

Pressure: 29.35 "Hg

Humidity: 97%

Dew point: 39 °F

Location of BrăilaLocation

Historic Weather in Brăila — Graph

°F

Brăila temperature yesterday

Maximum temperature yesterday: 53 °F (at 3:00 PM)
Minimum temperature yesterday: 45 °F (at 10:00 PM)
Average temperature yesterday: 48 °F

Past Weeks' High & Low Weather Summary

 TemperatureHumidityPressure
High53 °F (Jan 31, 3:00 PM)100% (Jan 17, 8:00 AM)30.29 "Hg (Jan 17, 8:00 AM)
Low26 °F (Jan 20, 7:00 AM)47% (Jan 31, 4:00 PM)29.06 "Hg (Jan 31, 6:00 AM)
Average36 °F95%29.94 "Hg
* Reported Jan 17 8:00 AM — Feb 1 8:00 AM, Brăila, Weather by CustomWeather, © 2014

Note: Actual official high and low records may vary slightly from our data, if they occured in-between our weather recording intervals... More about our weather records

Advertising

Brăila weather history for previous 24 hours

 ConditionsComfort  
Time TempWeatherWind HumidityBarometerVisibility
8:00 AM
Feb 1
40 °FLight rain. Overcast.1 mph97%29.35 "Hg6 mi
7:00 AM40 °FOvercast.1 mph95%29.38 "Hg12 mi
6:00 AM40 °FOvercast.1 mph90%29.38 "Hg12 mi
4:00 AM40 °FOvercast.2 mph83%29.38 "Hg12 mi
3:00 AM41 °FOvercast.1 mph86%29.41 "Hg12 mi
2:00 AM41 °FOvercast.1 mph87%29.41 "Hg12 mi
1:00 AM43 °FOvercast.1 mph85%29.41 "Hg12 mi
12:00 AM43 °FOvercast.No wind82%29.41 "Hg12 mi
11:00 PM
Jan 31
45 °FOvercast.2 mph75%29.41 "Hg12 mi
10:00 PM45 °FOvercast.2 mph69%29.38 "Hg12 mi
9:00 PM45 °FOvercast.2 mph64%29.38 "Hg12 mi
8:00 PM47 °FOvercast.3 mph55%29.35 "Hg12 mi
7:00 PM47 °FOvercast.5 mph57%29.32 "Hg12 mi
6:00 PM48 °FOvercast.6 mph59%29.29 "Hg12 mi
5:00 PM49 °FPartly sunny.6 mph56%29.26 "Hg12 mi
4:00 PM52 °FPassing clouds.6 mph47%29.23 "Hg12 mi
3:00 PM53 °FPassing clouds.8 mph48%29.21 "Hg12 mi
2:00 PM52 °FPassing clouds.8 mph62%29.18 "Hg6 mi
1:00 PM50 °FOvercast.8 mph64%29.15 "Hg6 mi
12:00 PM47 °FOvercast.5 mph72%29.15 "Hg6 mi
11:00 AM45 °FLight rain. Overcast.5 mph87%29.15 "Hg6 mi
10:00 AM48 °FLight rain. Overcast.7 mph95%29.12 "Hg6 mi
9:00 AM49 °FLight rain. Overcast.7 mph91%29.06 "Hg6 mi
Weather by CustomWeather, © 2014

See weather overviewHow to use our weather pages